Torna al catalogo

STARLINK-36201

AttivoComunicazioniVLEO
NORAD 67164·PAYLOAD·🇺🇸 United States

Lanciato Dec 17, 2025 da Cape Canaveral Space Force Station

Loading…

Prossimi Passaggi (prossime 24 ore)

TLE

AggiornatoSource: CelesTrak SupGP

Epoca: Sep 15, 2026, 02:43 UTC

1 67164C 25303B   26258.11368056  .00037311  00000+0  13511-2 0  2585
2 67164  43.0014 320.5817 0001264 266.2664 300.7866 15.27567213    19

Traccia STARLINK-36201 in tempo reale con AllMySat

Download on the App Store